Temperature
16 16 16 16 16 16 16 16 16 15 15 16 16 16 16 16 16 16 16 16 16 15 15 15 15 15 15 15 15 15 15 15 15 14 14 14 14 14
16 16 16 16 16 16 16 16 16 15 15 15 15 15 16 16 16 16 16 15 15 15 15 15 15 15 15 15 15 14 14 14 14 14 14 14 14 14
16 16 16 16 16 16 16 16 15 15 15 15 15 15 15 15 15 15 15 15 15 15 15 15 15 15 15 14 14 14 14 14 14 14 14 14 14 14
15 15 15 15 15 15 15 15 15 15 15 15 14 15 15 15 15 15 15 15 15 15 15 15 15 15 14 14 14 14 14 14 14 14 14 14 14 14
15 15 15 15 15 15 15 15 15 15 14 14 14 14 14 14 14 14 14 14 14 15 15 15 15 14 14 14 14 14 14 14 14 14 14 14 14 13
15 15 15 15 15 15 15 15 15 14 14 14 14 14 14 14 14 14 14 14 14 14 14 14 14 14 14 14 14 14 14 14 14 14 14 14 13 13
14 14 14 14 14 14 14 14 14 14 14 14 14 13 13 13 14 14 14 14 14 14 14 14 14 14 14 14 14 14 14 14 14 13 13 13 13 13
14 14 14 14 14 14 14 14 14 14 14 13 13 13 13 13 13 13 13 13 13 13 13 14 13 13 14 13 13 13 13 13 13 13 13 13 13 13
14 14 14 14 14 14 13 13 13 13 13 13 13 13 13 13 13 13 13 13 13 13 13 13 13 13 13 13 13 13 13 13 13 13 13 13 13 13
13 13 13 13 13 13 13 13 13 13 13 13 13 13 13 13 13 13 13 12 12 12 12 12 13 13 13 13 13 13 13 13 13 13 13 13 13 12
13 13 13 13 13 13 13 13 13 13 13 13 13 13 13 12 12 12 12 12 12 12 12 12 12 12 12 12 12 12 12 12 12 13 12 12 12 12
13 13 13 13 13 13 13 13 13 13 13 13 13 12 12 12 12 12 12 12 12 12 12 12 12 12 12 12 12 12 12 12 12 12 12 12 12 12
13 13 13 13 13 13 12 12 12 12 12 12 12 12 12 12 12 12 12 12 12 12 12 11 11 11 11 11 12 12 12 12 12 12 12 12 12 11
12 12 12 12 13 13 12 12 12 12 12 12 12 12 12 12 12 12 11 11 11 11 11 11 11 11 11 11 11 11 11 11 11 11 11 11 11 11
12 12 12 12 12 12 12 12 12 12 12 12 12 11 11 11 11 11 11 11 11 11 11 11 11 11 11 11 11 11 11 11 11 11 11 11 11 11
12 12 12 12 12 12 12 12 11 11 11 11 11 11 11 11 11 11 11 11 11 11 11 10 10 10 10 10 10 10 10 10 10 10 10 10 10 10
12 12 12 11 11 11 11 11 11 11 11 11 11 11 11 11 10 10 10 10 10 10 10 10 10 10 10 10 10 10 10 10 10 10 10 10 10 10
11 11 11 11 11 11 11 11 11 11 11 11 11 10 10 10 10 10 10 10 10 10 10 10 10 10 10 9 9 9 9 9 9 9 9 9 9 9
11 11 11 11 11 11 11 11 11 11 10 10 10 10 10 10 10 10 10 9 9 9 9 9 9 9 9 9 9 9 9 9 9 9 9 9 9 9
11 11 11 10 10 10 10 10 11 11 10 10 10 10 10 10 9 9 9 9 9 9 9 9 9 9 9 9 9 9 9 9 9 9 9 9 9 9
11 11 11 10 10 10 10 10 10 10 10 10 10 10 10 10 9 9 9 9 9 9 9 9 9 9 8 8 8 8 9 9 9 8 8 8 8 8
11 11 10 10 10 10 10 10 10 10 10 10 10 10 10 9 9 9 9 9 9 9 8 8 8 8 8 8 8 8 8 8 8 8 8 8 8 8
10 10 10 10 10 10 10 10 10 10 10 10 9 9 9 9 9 9 8 8 8 8 8 8 8 8 8 8 8 8 8 8 8 8 8 8 8 8
Wind_Speed
2 3 2 2 2 3 3 3 3 3 3 3 2 2 2 2 2 1 2 3 3 4 4 5 6 5 5 5 6 6 6 6 6 5 5 5 6 6
2 2 2 2 2 2 3 3 3 4 3 2 2 2 2 2 2 1 1 1 1 2 3 3 4 4 4 4 5 6 7 6 6 6 6 6 6 6
2 2 2 2 2 2 2 2 2 3 3 3 2 2 1 2 2 2 2 1 1 1 2 2 3 4 4 4 4 5 6 7 7 7 7 7 7 7
2 2 3 2 2 2 2 2 2 3 3 3 2 1 2 2 2 2 2 1 1 2 1 1 2 3 4 4 4 5 5 6 7 7 7 7 7 7
3 3 3 3 3 2 2 2 2 2 2 3 3 2 2 2 1 1 1 1 2 2 1 1 1 2 3 3 4 4 5 5 6 6 6 6 6 6
3 3 3 4 4 4 3 3 2 2 2 2 2 2 2 2 1 1 1 1 2 2 2 1 1 2 2 2 3 4 4 5 6 6 7 7 7 7
3 3 4 4 4 3 3 3 3 2 2 2 2 2 2 2 2 2 2 1 1 1 1 2 1 1 1 2 3 3 4 5 6 7 7 8 8 8
2 3 4 4 3 3 4 4 5 5 4 3 3 4 4 3 2 2 2 1 2 1 1 2 1 1 1 1 1 2 3 3 4 5 6 8 9 9
2 2 3 2 2 2 2 3 3 5 6 5 5 5 5 5 3 2 3 2 2 2 1 2 1 2 1 1 1 1 2 2 2 3 4 5 7 8
2 2 3 3 2 2 2 2 2 3 5 4 5 5 4 4 4 4 3 2 1 0 1 1 2 2 2 1 1 1 1 1 1 1 2 4 6 7
2 2 2 3 3 3 3 3 2 3 3 3 3 2 2 3 3 3 2 2 1 2 1 1 1 2 2 2 2 1 0 1 1 1 1 3 5 6
2 2 2 1 2 3 3 3 3 3 1 1 1 1 1 2 3 4 4 3 2 1 1 1 1 1 1 2 2 2 1 1 1 1 1 2 4 4
2 2 2 1 1 2 3 3 3 2 1 1 0 0 1 0 1 1 3 4 3 2 2 2 1 1 1 1 1 2 1 1 1 2 2 2 3 4
2 2 2 1 1 1 2 2 3 3 2 1 0 0 1 1 1 2 2 3 2 2 3 3 2 2 2 2 2 1 1 1 1 1 2 2 3 5
2 2 1 1 1 1 1 2 2 2 2 1 1 2 2 2 1 1 1 1 0 0 1 2 3 3 3 3 2 1 1 1 1 2 2 2 2 2
1 1 0 1 1 1 1 1 1 1 2 2 2 1 1 0 0 0 0 1 0 1 2 1 1 3 3 3 3 2 1 1 1 2 2 2 2 3
0 1 2 1 1 2 1 1 0 1 1 1 1 1 1 1 0 0 0 1 1 0 1 1 1 0 1 2 2 3 2 2 2 2 2 3 3 3
2 1 0 0 0 0 1 1 1 1 1 1 1 1 2 2 1 1 1 1 1 1 1 1 0 1 1 1 1 3 2 2 2 2 2 2 3 3
2 1 1 2 2 2 1 1 2 1 1 2 2 1 1 1 1 1 1 1 1 2 2 1 1 1 2 2 2 2 3 2 2 2 2 3 3 3
1 1 1 2 2 2 2 2 2 1 1 1 1 1 1 1 2 2 2 2 2 2 2 1 2 2 3 3 2 2 3 3 2 3 2 2 3 3
1 2 2 2 2 2 2 2 2 2 2 2 2 2 2 1 2 2 2 3 2 2 3 3 2 3 2 1 1 2 2 3 4 3 3 2 2 2
2 2 2 2 2 2 2 1 1 1 2 2 2 2 2 2 3 3 3 3 3 3 3 2 1 2 2 2 3 3 3 2 2 2 3 4 3 2
2 2 2 2 2 2 2 2 2 2 2 2 2 2 2 2 3 3 3 3 3 3 2 2 1 1 1 2 2 3 3 3 2 1 1 3 5 7
Wind_Direction
237 229 229 230 215 220 206 196 195 233 260 258 268 293 310 310 323 289 252 256 253 255 242 229 221 213 212 210 209 208 208 207 207 207 204 203 207 210
243 233 244 244 230 213 209 212 208 211 245 255 248 275 297 317 331 307 289 298 279 262 249 230 217 210 206 204 202 196 197 199 198 201 200 203 208 209
262 240 249 247 237 229 217 212 207 203 231 267 256 271 278 307 332 334 316 322 328 319 264 231 216 214 210 204 200 195 197 198 199 203 207 208 210 211
265 265 266 255 242 235 216 214 214 209 207 240 262 284 285 294 310 315 332 331 328 338 303 249 224 212 204 201 199 197 199 200 200 202 205 206 208 212
248 248 254 244 244 234 222 221 213 209 200 212 254 262 277 283 308 332 342 321 315 325 331 290 245 211 199 197 201 203 207 205 199 201 203 205 206 204
251 248 247 238 238 229 221 213 193 182 182 199 238 261 266 271 251 271 310 320 307 326 346 335 275 227 211 207 212 211 211 208 206 206 208 208 203 198
275 263 252 244 238 226 221 202 183 184 190 200 223 238 254 251 254 247 251 287 315 337 332 332 331 310 283 257 238 226 215 211 211 210 211 209 204 200
281 285 272 256 241 221 213 201 188 189 197 203 221 228 238 239 246 241 225 239 267 290 274 301 324 284 295 262 254 201 201 208 216 221 220 214 207 202
266 281 282 270 243 219 215 216 217 214 208 206 212 229 230 227 218 222 214 221 245 250 235 266 285 277 290 299 217 191 200 211 210 215 220 213 206 203
269 265 263 263 237 198 201 210 226 233 229 222 223 231 231 229 215 207 209 213 269 252 210 252 277 275 284 306 311 238 211 197 194 199 209 210 209 206
282 282 265 245 236 197 191 206 241 265 246 222 221 220 214 200 185 165 173 184 254 271 242 232 272 284 288 289 323 339 254 202 199 210 231 222 209 205
291 294 278 231 226 195 194 197 222 253 232 148 76 51 113 157 167 186 189 191 205 241 223 205 265 287 288 288 300 313 303 282 258 251 264 245 208 195
256 285 286 259 222 203 192 203 213 192 154 148 147 68 40 74 217 208 200 196 202 225 203 190 222 236 246 274 303 305 298 293 287 283 268 248 201 184
233 256 273 263 233 196 192 191 168 142 133 132 134 279 271 274 269 239 213 213 222 227 202 194 211 214 222 245 264 305 305 299 280 286 285 274 229 217
237 235 245 240 210 155 143 140 140 137 140 158 209 245 254 253 266 240 194 178 153 256 209 214 214 212 211 228 238 264 287 286 271 275 279 276 258 235
269 284 136 117 110 99 71 76 117 150 169 200 227 239 239 207 193 198 216 186 176 338 12 7 225 207 215 219 216 233 249 262 272 269 271 268 263 234
190 80 66 62 59 45 33 23 90 128 176 216 220 225 200 200 258 211 143 137 151 245 320 358 10 174 231 231 234 245 249 271 278 270 250 265 269 254
118 107 89 266 247 246 270 296 285 236 227 213 214 216 210 215 224 201 171 173 195 231 252 303 352 40 355 322 235 245 257 267 280 276 267 269 279 277
123 156 200 242 255 252 246 244 256 258 227 212 216 225 236 233 222 219 208 208 225 247 260 250 212 200 249 274 285 227 248 268 266 269 274 276 281 283
178 205 229 247 251 250 246 242 253 257 234 220 217 221 221 223 229 233 224 223 228 236 250 242 224 226 234 255 266 282 255 243 244 256 274 287 287 285
237 237 238 248 259 255 251 240 239 238 232 223 222 230 227 222 230 240 241 233 235 238 246 258 259 240 224 213 245 275 280 253 234 243 252 271 292 296
250 253 253 254 256 258 253 237 232 236 230 230 232 233 232 229 233 241 241 238 237 240 254 269 259 209 207 220 248 272 287 304 293 251 242 233 242 250
249 253 260 265 261 256 246 229 225 236 237 232 232 234 229 232 241 241 239 238 237 237 246 254 251 235 230 230 244 265 275 286 293 288 284 282 262 262
Height
1513 1513 1512 1512 1513 1513 1513 1514 1515 1514 1513 1514 1515 1515 1515 1515 1514 1514 1514 1514 1514 1514 1514 1514 1514 1514 1514 1515 1515 1516 1517 1518 1519 1520 1522 1523 1524 1525
1509 1509 1509 1509 1509 1510 1510 1510 1511 1511 1511 1510 1511 1512 1512 1512 1512 1511 1511 1511 1512 1512 1512 1512 1512 1512 1512 1512 1513 1514 1515 1516 1517 1518 1519 1520 1522 1523
1506 1506 1506 1506 1506 1506 1507 1507 1507 1508 1507 1507 1508 1509 1509 1508 1508 1508 1509 1509 1509 1509 1509 1510 1510 1510 1510 1510 1511 1512 1513 1513 1514 1515 1517 1518 1519 1520
1503 1503 1503 1503 1503 1503 1503 1504 1504 1504 1505 1504 1504 1505 1506 1506 1506 1506 1506 1506 1507 1507 1507 1507 1507 1508 1508 1508 1509 1510 1510 1511 1512 1513 1514 1515 1516 1517
1499 1499 1499 1499 1499 1499 1500 1500 1501 1501 1502 1501 1501 1502 1503 1503 1503 1503 1504 1504 1504 1505 1505 1505 1505 1505 1506 1506 1507 1507 1508 1509 1510 1510 1511 1512 1513 1514
1496 1496 1496 1496 1496 1496 1496 1497 1497 1498 1498 1499 1499 1500 1500 1501 1501 1501 1501 1501 1502 1502 1502 1503 1503 1503 1504 1504 1505 1505 1505 1506 1507 1508 1509 1509 1510 1511
1493 1493 1493 1493 1493 1493 1493 1494 1494 1495 1495 1496 1496 1497 1497 1498 1498 1498 1498 1498 1499 1499 1500 1500 1500 1501 1501 1501 1502 1502 1502 1503 1504 1504 1505 1506 1507 1508
1490 1489 1489 1489 1490 1490 1490 1491 1491 1492 1492 1493 1493 1493 1494 1494 1495 1495 1495 1496 1496 1497 1497 1497 1498 1498 1498 1498 1499 1499 1499 1500 1500 1501 1502 1503 1504 1504
1487 1487 1486 1486 1486 1487 1487 1488 1489 1489 1490 1491 1491 1491 1491 1492 1493 1493 1493 1493 1493 1494 1495 1494 1495 1495 1496 1496 1496 1496 1496 1497 1497 1498 1498 1499 1500 1501
1484 1484 1483 1483 1483 1484 1484 1485 1486 1486 1487 1488 1488 1489 1489 1490 1490 1491 1491 1491 1491 1492 1492 1492 1492 1493 1493 1493 1494 1494 1494 1494 1494 1494 1495 1496 1496 1497
1481 1481 1480 1480 1480 1481 1481 1482 1483 1483 1484 1485 1486 1486 1487 1487 1487 1488 1488 1488 1488 1489 1490 1490 1491 1491 1491 1491 1491 1491 1491 1491 1491 1491 1492 1492 1493 1494
1478 1478 1477 1477 1478 1478 1478 1479 1479 1480 1481 1482 1483 1483 1483 1484 1484 1485 1485 1485 1485 1486 1487 1488 1488 1489 1489 1489 1489 1489 1489 1489 1488 1489 1489 1489 1490 1490
1476 1475 1475 1475 1475 1476 1476 1476 1477 1478 1479 1479 1480 1480 1480 1480 1481 1481 1482 1483 1483 1483 1484 1485 1485 1486 1487 1486 1486 1486 1486 1486 1486 1486 1486 1486 1486 1487
1474 1474 1473 1473 1473 1473 1474 1474 1475 1476 1476 1476 1477 1477 1477 1477 1478 1478 1479 1479 1480 1481 1482 1482 1483 1483 1484 1483 1483 1483 1484 1483 1483 1483 1483 1483 1483 1483
1472 1472 1472 1472 1472 1472 1472 1472 1473 1473 1473 1474 1474 1475 1475 1475 1475 1475 1476 1476 1477 1478 1479 1480 1480 1481 1481 1480 1480 1480 1480 1480 1480 1480 1480 1480 1479 1479
1470 1470 1470 1470 1470 1470 1470 1470 1471 1471 1471 1472 1472 1472 1473 1472 1472 1472 1473 1473 1474 1475 1476 1477 1477 1478 1478 1478 1478 1477 1477 1477 1477 1477 1476 1476 1476 1476
1468 1468 1468 1467 1467 1467 1468 1469 1469 1469 1469 1469 1469 1470 1470 1470 1470 1470 1470 1471 1471 1472 1472 1473 1474 1474 1475 1475 1475 1474 1474 1474 1474 1473 1473 1472 1472 1472
1466 1465 1466 1465 1465 1465 1466 1467 1467 1467 1467 1467 1467 1467 1467 1467 1468 1468 1468 1468 1469 1469 1470 1470 1471 1471 1472 1472 1472 1471 1471 1471 1470 1470 1469 1469 1468 1469
1464 1463 1463 1464 1464 1464 1465 1465 1465 1465 1465 1465 1465 1465 1465 1465 1465 1465 1465 1466 1466 1467 1467 1468 1468 1468 1469 1468 1468 1469 1468 1467 1467 1466 1466 1465 1465 1465
1462 1462 1462 1462 1463 1463 1463 1463 1463 1463 1463 1463 1463 1463 1463 1463 1463 1463 1463 1463 1464 1464 1465 1465 1465 1465 1465 1466 1465 1465 1466 1465 1464 1463 1463 1462 1462 1462
1460 1460 1461 1461 1461 1461 1461 1461 1461 1461 1461 1461 1460 1461 1461 1461 1461 1461 1461 1462 1462 1462 1462 1463 1463 1463 1463 1463 1463 1462 1462 1462 1462 1461 1460 1459 1459 1458
1459 1459 1459 1459 1459 1459 1459 1459 1459 1459 1458 1458 1458 1458 1458 1459 1459 1459 1459 1459 1459 1460 1460 1460 1460 1460 1460 1459 1459 1459 1459 1459 1459 1458 1458 1457 1456 1455
1457 1457 1457 1457 1457 1457 1457 1457 1457 1456 1456 1456 1456 1456 1456 1456 1456 1457 1457 1457 1457 1457 1457 1457 1457 1457 1457 1456 1456 1456 1456 1455 1455 1454 1454 1454 1454 1453